EW4443 Weather Reports


time (UTC)temp
F
wind
direction
speed
knots
gust
knots
rain 1hr
in
rain 24hr
in
rain mn
in
humidity
%
barometer
mb
20260510050014 87 68 0.0 0.0 0.00 0.00 0.00 20 1006.2
20260510045243 88 338 0.0 0.0 0.00 0.00 0.00 20 1005.9
20260510044513 88 68 0.0 0.0 0.00 0.00 0.00 19 1005.9
20260510044013 89 68 0.0 0.0 0.00 0.00 0.00 19 1005.9
20260510043518 89 113 0.0 0.0 0.00 0.00 0.00 19 1005.9
20260510043514 89 68 0.0 0.0 0.00 0.00 0.00 20 1005.9
20260510042745 90 113 0.0 0.0 0.00 0.00 0.00 17 1005.9
20260510042014 90 180 0.0 0.0 0.00 0.00 0.00 17 1005.9
20260510041514 91 180 0.0 0.0 0.00 0.00 0.00 17 1005.9
20260510041013 91 180 0.0 0.0 0.00 0.00 0.00 15 1005.9
20260510040513 91 270 0.0 0.0 0.00 0.00 0.00 15 1005.9
20260510040244 91 270 0.0 0.0 0.00 0.00 0.00 15 1005.5
20260510035512 92 338 0.0 0.9 0.00 0.00 0.00 13 1005.5
20260510035014 92 203 0.0 0.9 0.00 0.00 0.00 13 1005.5
20260510034514 92 270 0.0 0.9 0.00 0.00 0.00 13 1005.5
20260510034014 92 270 0.0 1.7 0.00 0.00 0.00 12 1005.2
20260510033744 92 293 0.0 1.7 0.00 0.00 0.00 12 1005.2
20260510033014 93 248 0.0 1.7 0.00 0.00 0.00 12 1005.2
20260510032744 93 248 0.0 2.6 0.00 0.00 0.00 12 1005.2
20260510032012 93 270 0.0 3.5 0.00 0.00 0.00 12 1005.2
20260510031512 93 293 0.9 3.5 0.00 0.00 0.00 12 1005.2
20260510031013 94 293 0.9 4.3 0.00 0.00 0.00 12 1005.2
20260510030513 94 338 0.9 5.2 0.00 0.00 0.00 12 1005.2
20260510030246 94 293 0.9 5.2 0.00 0.00 0.00 12 1004.8
20260510025745 94 270 0.9 5.2 0.00 0.00 0.00 12 1004.8
20260510025014 95 270 0.9 5.2 0.00 0.00 0.00 12 1004.8
20260510024514 95 270 0.9 5.2 0.00 0.00 0.00 12 1004.8
20260510024244 95 270 0.9 5.2 0.00 0.00 0.00 12 1004.8
20260510023512 95 270 0.9 6.1 0.00 0.00 0.00 12 1004.5
20260510023012 96 338 0.9 6.1 0.00 0.00 0.00 12 1004.5
20260510022513 96 270 0.9 6.1 0.00 0.00 0.00 12 1004.5
20260510022244 96 315 0.9 4.3 0.00 0.00 0.00 12 1004.5
20260510021514 96 113 0.9 7.8 0.00 0.00 0.00 12 1004.5
20260510021013 97 315 0.9 7.8 0.00 0.00 0.00 12 1004.1
20260510020513 97 270 0.9 5.2 0.00 0.00 0.00 12 1004.5
20260510020014 97 225 0.9 6.1 0.00 0.00 0.00 12 1004.5
20260510015513 98 270 0.9 7.0 0.00 0.00 0.00 12 1004.5
20260510015014 98 248 1.7 7.0 0.00 0.00 0.00 12 1004.1
20260510014743 98 270 1.7 7.0 0.00 0.00 0.00 12 1004.1
20260510014012 98 248 1.7 7.0 0.00 0.00 0.00 12 1004.1
20260510013512 99 315 1.7 6.1 0.00 0.00 0.00 12 1004.1
20260510013013 99 248 1.7 5.2 0.00 0.00 0.00 12 1004.1
20260510012513 99 248 0.9 6.1 0.00 0.00 0.00 12 1004.5
20260510012013 100 270 0.9 8.7 0.00 0.00 0.00 12 1004.1
20260510011513 100 315 1.7 8.7 0.00 0.00 0.00 11 1004.5
20260510011248 100 270 1.7 7.0 0.00 0.00 0.00 11 1004.1
20260510011013 100 68 0.9 6.1 0.00 0.00 0.00 12 1004.1
20260510010012 100 270 1.7 7.8 0.00 0.00 0.00 11 1004.1
20260510005512 101 270 1.7 7.8 0.00 0.00 0.00 11 1004.1
20260510005012 101 248 0.9 6.1 0.00 0.00 0.00 11 1004.1
20260510004512 101 293 1.7 7.0 0.00 0.00 0.00 11 1004.5
20260510004012 101 293 0.9 7.0 0.00 0.00 0.00 11 1004.1
20260510003512 101 225 0.9 6.1 0.00 0.00 0.00 11 1004.5
20260510003243 102 225 1.7 7.0 0.00 0.00 0.00 11 1004.5
20260510002511 102 203 1.7 7.8 0.00 0.00 0.00 11 1004.1
20260510002011 102 180 0.9 7.8 0.00 0.00 0.00 11 1004.5
20260510001511 102 248 1.7 7.8 0.00 0.00 0.00 11 1004.5
20260510001011 103 180 1.7 9.6 0.00 0.00 0.00 10 1004.5
20260510000511 103 203 1.7 9.6 0.00 0.00 0.00 10 1004.1
20260510000242 103 225 0.9 5.2 0.00 0.00 0.00 10 1004.1
20260509235511 103 270 0.9 6.1 0.00 0.00 0.00 11 1004.5
20260509235012 103 270 0.9 7.0 0.00 0.00 0.00 11 1004.5
20260509234511 103 293 0.9 7.0 0.00 0.00 0.00 11 1004.5
20260509234241 103 225 0.9 6.1 0.00 0.00 0.00 11 1004.5
20260509233511 103 270 1.7 6.1 0.00 0.00 0.00 10 1004.5
20260509233241 103 248 0.9 6.1 0.00 0.00 0.00 10 1004.8
20260509232742 103 225 1.7 7.8 0.00 0.00 0.00 10 1004.8
20260509232010 103 248 1.7 15.6 0.00 0.00 0.00 11 1004.8
20260509231511 103 225 1.7 15.6 0.00 0.00 0.00 12 1004.1
20260509231010 103 338 0.9 5.2 0.00 0.00 0.00 12 1004.8
20260509230512 103 203 1.7 5.2 0.00 0.00 0.00 10 1004.8
20260509230011 103 45 0.9 5.2 0.00 0.00 0.00 12 1004.8
20260509225509 104 180 0.9 7.8 0.00 0.00 0.00 10 1004.8
20260509225010 104 68 0.9 7.8 0.00 0.00 0.00 12 1005.2
20260509224509 104 315 1.7 6.1 0.00 0.00 0.00 11 1005.2
20260509224241 104 68 0.9 6.1 0.00 0.00 0.00 12 1005.2
20260509223509 104 270 1.7 9.6 0.00 0.00 0.00 12 1005.5
20260509223011 103 338 1.7 9.6 0.00 0.00 0.00 12 1005.5
20260509222741 103 270 1.7 6.1 0.00 0.00 0.00 12 1005.5
20260509222242 103 225 0.9 7.8 0.00 0.00 0.00 11 1005.5
20260509221510 103 270 1.7 7.8 0.00 0.00 0.00 12 1005.5
20260509221009 103 225 0.9 6.1 0.00 0.00 0.00 12 1005.9
20260509220509 103 45 0.9 5.2 0.00 0.00 0.00 12 1005.5
20260509220009 103 135 0.9 5.2 0.00 0.00 0.00 12 1005.9
20260509215508 103 338 0.9 6.1 0.00 0.00 0.00 12 1005.9
20260509215009 103 293 1.7 7.0 0.00 0.00 0.00 12 1006.2
20260509214510 103 203 1.7 7.0 0.00 0.00 0.00 11 1005.9
20260509214010 102 293 0.9 4.3 0.00 0.00 0.00 12 1006.2
20260509213510 102 68 0.9 7.0 0.00 0.00 0.00 12 1006.2
20260509213010 102 270 0.9 7.0 0.00 0.00 0.00 12 1006.5
20260509212740 102 45 1.7 7.0 0.00 0.00 0.00 12 1006.5
20260509212010 102 180 1.7 7.8 0.00 0.00 0.00 12 1006.5
20260509211504 101 270 1.7 7.8 0.00 0.00 0.00 12 1006.5
20260509210950 101 270 0.0 5.2 0.00 0.00 0.00 13 1006.5
20260509210721 101 338 0.9 5.2 0.00 0.00 0.00 12 1006.5
20260509210221 101 45 0.9 6.1 0.00 0.00 0.00 13 1006.9
20260509205722 101 180 0.9 7.0 0.00 0.00 0.00 12 1007.3
20260509204951 101 225 1.7 7.0 0.00 0.00 0.00 12 1007.3
20260509204451 101 135 0.9 6.1 0.00 0.00 0.00 12 1007.3
20260509203949 101 270 1.7 6.1 0.00 0.00 0.00 12 1007.3
20260509203448 100 270 0.9 7.0 0.00 0.00 0.00 12 1007.3
20260509202949 100 270 1.7 7.0 0.00 0.00 0.00 12 1007.6
20260509202449 100 23 0.9 7.8 0.00 0.00 0.00 12 1007.3
20260509201949 100 203 1.7 7.8 0.00 0.00 0.00 12 1007.6
20260509201450 100 23 0.9 6.1 0.00 0.00 0.00 13 1007.6
20260509200949 100 23 0.9 4.3 0.00 0.00 0.00 13 1008.0
20260509200450 100 293 0.9 3.5 0.00 0.00 0.00 13 1008.0
20260509195949 100 135 0.9 5.2 0.00 0.00 0.00 15 1008.0
20260509195449 99 293 0.9 5.2 0.00 0.00 0.00 15 1008.0
20260509195220 99 225 0.9 4.3 0.00 0.00 0.00 15 1008.3
20260509194719 99 23 0.9 4.3 0.00 0.00 0.00 13 1008.0
20260509193949 99 270 0.9 4.3 0.00 0.00 0.00 15 1008.3
20260509193448 98 270 0.9 4.3 0.00 0.00 0.00 15 1008.3
20260509192950 98 68 0.9 3.5 0.00 0.00 0.00 13 1008.3
20260509192449 98 0 0.9 5.2 0.00 0.00 0.00 15 1008.3
20260509191949 98 338 0.9 5.2 0.00 0.00 0.00 13 1008.3
20260509191452 97 158 0.0 5.2 0.00 0.00 0.00 15 1008.7
20260509190950 97 270 0.9 5.2 0.00 0.00 0.00 15 1008.7
20260509190718 97 270 0.9 4.3 0.00 0.00 0.00 15 1008.7
20260509185948 97 225 0.0 3.5 0.00 0.00 0.00 15 1008.7
20260509185449 97 135 0.0 4.3 0.00 0.00 0.00 15 1008.7
20260509184948 97 180 0.9 4.3 0.00 0.00 0.00 13 1008.7
20260509184720 97 158 0.0 3.5 0.00 0.00 0.00 15 1009.0
20260509183949 97 203 0.0 3.5 0.00 0.00 0.00 15 1009.0
20260509183450 97 225 0.9 3.5 0.00 0.00 0.00 15 1009.0
20260509182949 96 180 0.0 3.5 0.00 0.00 0.00 15 1009.3
20260509182438 96 90 0.0 5.2 0.00 0.00 0.00 15 1009.0
20260509182201 96 158 0.9 5.2 0.00 0.00 0.00 15 1009.3
20260509181430 96 45 0.9 4.3 0.00 0.00 0.00 15 1009.3
20260509180930 96 270 0.9 4.3 0.00 0.00 0.00 15 1009.3
20260509180429 95 158 0.0 2.6 0.00 0.00 0.00 15 1009.7
20260509175931 95 270 0.0 2.6 0.00 0.00 0.00 15 1009.7
20260509175431 95 180 0.0 2.6 0.00 0.00 0.00 17 1009.7
20260509174930 95 338 0.0 2.6 0.00 0.00 0.00 17 1009.7
20260509174430 94 113 0.0 4.3 0.00 0.00 0.00 17 1009.7
20260509174202 94 158 0.9 4.3 0.00 0.00 0.00 17 1009.7
20260509173701 94 180 0.9 3.5 0.00 0.00 0.00 17 1009.7
20260509172929 93 23 0.0 2.6 0.00 0.00 0.00 17 1010.0
20260509172429 93 158 0.0 2.6 0.00 0.00 0.00 17 1010.0
20260509171929 93 23 0.0 2.6 0.00 0.00 0.00 19 1010.0
20260509171431 92 203 0.9 2.6 0.00 0.00 0.00 17 1010.0
20260509171202 92 203 0.0 1.7 0.00 0.00 0.00 19 1010.0
20260509170430 92 45 0.0 2.6 0.00 0.00 0.00 19 1010.0
20260509170202 91 248 0.0 2.6 0.00 0.00 0.00 19 1010.0
20260509165431 91 180 0.0 3.5 0.00 0.00 0.00 19 1010.0
20260509164929 91 45 0.0 3.5 0.00 0.00 0.00 19 1010.0
20260509164429 90 158 0.0 3.5 0.00 0.00 0.00 19 1010.0
20260509163929 90 180 0.9 2.6 0.00 0.00 0.00 20 1010.0
20260509163430 90 225 0.0 1.7 0.00 0.00 0.00 20 1010.0
20260509162931 89 180 0.0 2.6 0.00 0.00 0.00 20 1010.0
20260509162701 89 203 0.0 2.6 0.00 0.00 0.00 20 1010.0
20260509161930 88 180 0.9 3.5 0.00 0.00 0.00 20 1010.0
20260509161431 88 225 0.0 3.5 0.00 0.00 0.00 20 1010.0
20260509160930 87 293 0.0 2.6 0.00 0.00 0.00 20 1010.0
20260509160411 87 68 0.0 2.6 0.00 0.00 0.00 20 1010.0
20260509155910 86 180 0.0 2.6 0.00 0.00 0.00 22 1010.0
20260509155410 86 135 0.0 2.6 0.00 0.00 0.00 22 1010.0
20260509155141 85 158 0.0 2.6 0.00 0.00 0.00 22 1010.0
20260509154410 85 158 0.0 1.7 0.00 0.00 0.00 22 1010.0
20260509153911 85 180 0.0 0.9 0.00 0.00 0.00 22 1010.0
20260509153411 84 225 0.0 0.9 0.00 0.00 0.00 22 1010.0
20260509152912 84 68 0.0 1.7 0.00 0.00 0.00 22 1009.7
20260509152643 83 180 0.0 1.7 0.00 0.00 0.00 22 1010.0
20260509151910 83 203 0.0 1.7 0.00 0.00 0.00 25 1009.7
20260509151410 82 225 0.0 1.7 0.00 0.00 0.00 25 1010.0
20260509150910 81 248 0.0 1.7 0.00 0.00 0.00 25 1010.0
20260509150410 81 203 0.0 0.9 0.00 0.00 0.00 27 1009.7
20260509145910 80 293 0.0 1.7 0.00 0.00 0.00 27 1010.0
20260509145412 79 180 0.0 1.7 0.00 0.00 0.00 27 1009.7
20260509145142 79 270 0.0 0.9 0.00 0.00 0.00 27 1010.0
20260509144412 78 68 0.0 0.9 0.00 0.00 0.00 27 1010.0
20260509144143 78 68 0.0 0.9 0.00 0.00 0.00 27 1010.0
20260509143411 77 248 0.0 0.9 0.00 0.00 0.00 29 1009.7
20260509142914 76 225 0.0 0.0 0.00 0.00 0.00 30 1010.0
20260509142910 76 338 0.0 0.0 0.00 0.00 0.00 29 1010.0
20260509141910 75 338 0.0 0.9 0.00 0.00 0.00 30 1009.7
20260509141410 74 270 0.0 1.7 0.00 0.00 0.00 30 1009.7
20260509140911 74 90 0.0 1.7 0.00 0.00 0.00 30 1009.7
20260509140642 74 68 0.0 0.9 0.00 0.00 0.00 30 1009.7
20260509140142 73 68 0.0 0.9 0.00 0.00 0.00 30 1009.3
20260509135411 73 23 0.0 0.9 0.00 0.00 0.00 30 1009.3
20260509134911 72 248 0.0 0.9 0.00 0.00 0.00 30 1009.7
20260509134409 72 90 0.0 0.9 0.00 0.00 0.00 31 1009.7
20260509133912 72 203 0.0 1.7 0.00 0.00 0.00 30 1009.3
20260509133410 71 338 0.0 1.7 0.00 0.00 0.00 30 1009.3
20260509132910 71 23 0.0 1.7 0.00 0.00 0.00 30 1009.3
20260509132411 71 23 0.0 1.7 0.00 0.00 0.00 29 1009.0
20260509131911 71 225 0.0 1.7 0.00 0.00 0.00 29 1009.3
20260509131411 71 270 0.0 1.7 0.00 0.00 0.00 29 1009.0
20260509130912 71 23 0.0 1.7 0.00 0.00 0.00 29 1009.0
20260509130411 70 225 0.0 1.7 0.00 0.00 0.00 30 1009.0
20260509125902 70 135 0.0 1.7 0.00 0.00 0.00 30 1009.0
20260509125352 70 23 0.0 1.7 0.00 0.00 0.00 30 1009.0
20260509124855 70 203 0.0 1.7 0.00 0.00 0.00 30 1009.0
20260509124851 70 113 0.0 1.7 0.00 0.00 0.00 30 1008.7
20260509124123 70 338 0.0 1.7 0.00 0.00 0.00 30 1008.7
20260509123353 70 315 0.0 0.0 0.00 0.00 0.00 30 1008.7
20260509122852 70 293 0.0 0.0 0.00 0.00 0.00 30 1008.7
20260509122353 70 23 0.0 0.0 0.00 0.00 0.00 30 1008.3
20260509121854 71 203 0.0 0.0 0.00 0.00 0.00 30 1008.3
20260509121352 71 338 0.0 0.0 0.00 0.00 0.00 30 1008.3
20260509120852 71 270 0.0 0.0 0.00 0.00 0.00 29 1008.3
20260509120351 71 293 0.0 0.0 0.00 0.00 0.00 30 1008.3
20260509115851 71 45 0.0 0.0 0.00 0.00 0.00 31 1008.3
20260509115351 71 0 0.0 0.0 0.00 0.00 0.00 30 1008.3
20260509114853 71 315 0.0 0.0 0.00 0.00 0.00 30 1008.0
20260509114353 71 113 0.0 0.0 0.00 0.00 0.00 30 1008.0
20260509113852 72 270 0.0 0.0 0.00 0.00 0.00 31 1008.0
20260509113353 72 0 0.0 0.0 0.00 0.00 0.00 30 1008.0
20260509112852 72 90 0.0 0.0 0.00 0.00 0.00 31 1008.0
20260509112351 72 45 0.0 0.0 0.00 0.00 0.00 32 1008.0
20260509112122 72 23 0.0 0.0 0.00 0.00 0.00 31 1008.0
20260509111352 72 68 0.0 2.6 0.00 0.00 0.00 31 1008.0
20260509110851 72 23 0.0 2.6 0.00 0.00 0.00 31 1008.0
20260509110353 73 90 0.0 0.0 0.00 0.00 0.00 30 1008.0
20260509110124 73 45 0.0 0.0 0.00 0.00 0.00 30 1008.0
20260509105352 73 0 0.0 0.0 0.00 0.00 0.00 30 1008.0
20260509104853 73 23 0.0 0.0 0.00 0.00 0.00 31 1007.6
20260509104623 73 203 0.0 2.6 0.00 0.00 0.00 31 1007.6
20260509103852 73 45 0.9 2.6 0.00 0.00 0.00 32 1008.0
20260509103351 73 68 0.0 1.7 0.00 0.00 0.00 31 1007.6
20260509102852 73 203 0.0 0.0 0.00 0.00 0.00 31 1007.6
20260509102351 74 0 0.0 0.0 0.00 0.00 0.00 32 1007.6
20260509101853 74 0 0.0 0.0 0.00 0.00 0.00 31 1007.6
20260509101352 74 23 0.0 0.0 0.00 0.00 0.00 31 1007.6
20260509100853 74 23 0.0 0.0 0.00 0.00 0.00 31 1007.6
20260509100353 74 68 0.0 0.0 0.00 0.00 0.00 31 1008.0
20260509095852 74 293 0.0 0.0 0.00 0.00 0.00 31 1007.6
20260509095353 74 293 0.0 0.0 0.00 0.00 0.00 31 1007.6
20260509095122 75 270 0.0 0.0 0.00 0.00 0.00 31 1007.6
20260509094352 75 293 0.0 0.0 0.00 0.00 0.00 32 1007.6
20260509094121 75 315 0.0 0.0 0.00 0.00 0.00 31 1007.6
20260509093351 75 315 0.0 0.0 0.00 0.00 0.00 30 1007.6
20260509092852 75 0 0.0 0.0 0.00 0.00 0.00 30 1008.0
20260509092353 75 0 0.0 0.0 0.00 0.00 0.00 30 1007.6
20260509091852 76 0 0.0 0.0 0.00 0.00 0.00 30 1008.0
20260509091353 76 0 0.0 0.0 0.00 0.00 0.00 30 1007.6
20260509091123 76 338 0.0 0.0 0.00 0.00 0.00 30 1007.6
20260509090352 76 338 0.0 0.0 0.00 0.00 0.00 30 1008.0
20260509085852 76 315 0.0 0.0 0.00 0.00 0.00 30 1007.6
20260509085622 76 0 0.0 0.0 0.00 0.00 0.00 30 1007.6
20260509084851 76 248 0.0 0.0 0.00 0.00 0.00 30 1007.6
20260509084353 77 68 0.0 0.0 0.00 0.00 0.00 30 1007.6
20260509083853 77 68 0.0 0.0 0.00 0.00 0.00 30 1008.0
20260509083624 77 68 0.0 0.0 0.00 0.00 0.00 30 1007.6
20260509082852 77 45 0.0 0.0 0.00 0.00 0.00 30 1007.6
20260509082623 77 23 0.0 0.0 0.00 0.00 0.00 29 1007.6
20260509081851 78 23 0.0 0.0 0.00 0.00 0.00 30 1007.6
20260509081353 78 23 0.0 0.0 0.00 0.00 0.00 29 1007.6
20260509080851 78 90 0.0 0.0 0.00 0.00 0.00 29 1007.3
20260509080351 78 90 0.0 0.0 0.00 0.00 0.00 27 1007.6
20260509075851 78 90 0.0 0.0 0.00 0.00 0.00 29 1007.3
20260509075623 78 68 0.0 0.0 0.00 0.00 0.00 27 1007.6
20260509074853 79 23 0.0 1.7 0.00 0.00 0.00 27 1007.6
20260509074352 79 45 0.0 1.7 0.00 0.00 0.00 27 1007.6
20260509074123 79 23 0.0 0.0 0.00 0.00 0.00 27 1007.6
20260509073622 79 23 0.0 0.0 0.00 0.00 0.00 25 1007.3
20260509072851 80 68 0.0 0.0 0.00 0.00 0.00 27 1007.3
20260509072351 80 180 0.0 0.0 0.00 0.00 0.00 25 1007.3
20260509072122 80 113 0.0 0.0 0.00 0.00 0.00 25 1007.3
20260509071622 80 113 0.0 0.0 0.00 0.00 0.00 25 1007.3
20260509070853 81 135 0.0 0.0 0.00 0.00 0.00 27 1007.3
20260509070352 81 135 0.0 0.0 0.00 0.00 0.00 25 1007.3
20260509065853 81 135 0.0 0.0 0.00 0.00 0.00 25 1007.3
20260509065352 82 135 0.0 0.0 0.00 0.00 0.00 25 1007.3
20260509065124 82 203 0.0 0.0 0.00 0.00 0.00 25 1007.3
20260509064351 82 203 0.0 0.0 0.00 0.00 0.00 25 1007.3
20260509063851 82 203 0.0 0.0 0.00 0.00 0.00 25 1007.3
20260509063351 82 203 0.0 0.0 0.00 0.00 0.00 25 1007.3
20260509062851 83 203 0.0 0.0 0.00 0.00 0.00 25 1007.3
20260509062352 83 203 0.0 0.0 0.00 0.00 0.00 22 1007.3
20260509061834 83 203 0.0 0.0 0.00 0.00 0.00 22 1007.3
20260509061334 83 203 0.0 0.9 0.00 0.00 0.00 22 1007.3
20260509061104 83 203 0.0 0.9 0.00 0.00 0.00 22 1007.3
20260509060334 83 203 0.0 0.0 0.00 0.00 0.00 22 1006.9
20260509055833 83 270 0.0 0.9 0.00 0.00 0.00 22 1007.3
20260509055602 84 270 0.0 1.7 0.00 0.00 0.00 22 1007.3
20260509054832 84 248 0.0 1.7 0.00 0.00 0.00 22 1007.3
20260509054333 84 270 0.0 0.9 0.00 0.00 0.00 22 1006.9
20260509054104 85 270 0.0 1.7 0.00 0.00 0.00 22 1006.9
20260509053333 85 203 0.0 1.7 0.00 0.00 0.00 22 1007.3
20260509053104 85 270 0.0 1.7 0.00 0.00 0.00 22 1006.9
20260509052333 85 248 0.0 0.0 0.00 0.00 0.00 22 1007.3
20260509051834 86 248 0.0 0.0 0.00 0.00 0.00 24 1007.3
20260509051332 86 270 0.0 0.0 0.00 0.00 0.00 24 1007.3
20260509050832 86 248 0.0 0.0 0.00 0.00 0.00 22 1007.3
20260509050333 87 270 0.0 0.0 0.00 0.00 0.00 20 1006.9